Regional Weather Roundup
Issued by NWS

Home | Current Version | Previous Version | Graphics & Text | Print | Product List | Glossary On
Versions: 1 2 3 4 5 6 7 8 9 10 11 12 13 14 15 16 17 18 19 20 21 22 23 24 25 26 27 28 29 30 31 32 33 34 35 36 37 38 39 40 41 42 43 44 45 46 47 48 49 50
000
ASUS43 KIND 291509
RWRIN

WEATHER ROUNDUP FOR INDIANA
NATIONAL WEATHER SERVICE INDIANAPOLIS IN
1100 AM EDT SUN MAR 29 2015

NOTE: "FAIR" INDICATES FEW OR NO CLOUDS BELOW 12,000 FEET WITH NO
SIGNIFICANT WEATHER AND/OR OBSTRUCTIONS TO VISIBILITY.

* - STATION DOES NOT REPORT WEATHER SUCH AS PRECIPITATION OR FOG.

+ - STATION NOT QUALITY CONTROLLED BY THE NATIONAL WEATHER SERVICE.
    USE DATA WITH CAUTION...ESPECIALLY DEWPOINT AND RELATIVE
    HUMIDITY OBSERVATIONS.

INZ001>003-010>013-019-020-291600-
NORTHWEST INDIANA

CITY           SKY/WX    TMP DP  RH WIND       PRES   REMARKS
GARY /AIRPORT/ PTSUNNY   39  12  33 S23       30.11
KNOX *+          N/A     36  -2  20 S21G29    30.14F
LA PORTE +     MOSUNNY   38  19  46 S15G24    30.13F
MICHIGAN CITY+ SUNNY     36  12  38 S17G30    30.12F
MONTICELLO +   PTSUNNY   38  20  47 S16G25    30.17F
RENSSELAER +   MOSUNNY   36  23  60 S16G23    30.16F
VALPARAISO     SUNNY     36  17  46 S18G25    30.14F

$$

LMZ046-743>745-291600-
SOUTHERN LAKE MICHIGAN

STATION/POSITION TIME  TEMP WIND        PRES
                       AIR  DIR/SP/G
                 (UTC) (F)  (DEG/KT/KT) (MB)
BURNS HARBOR     1500   36  190/ 23     1019.6F
MICHIGAN CITY    1500   35  160/ 19/ 26   N/A

$$

INZ004-005-014>016-021>024-291600-
NORTH CENTRAL INDIANA

CITY           SKY/WX    TMP DP  RH WIND       PRES   REMARKS
ELKHART        PTSUNNY   37  14  38 S13G23    30.17F
GOSHEN         PTSUNNY   37  18  46 S21       30.17F
LOGANSPORT +   PTSUNNY   36  19  51 S18G24    30.20F
PERU/GRISSOM   PTSUNNY   37  19  48 S17       30.19F
ROCHESTER +    PTSUNNY   37  19  48 S17G25    30.19S
SOUTH BEND     MOSUNNY   38  16  40 S20G29    30.14F
WARSAW +       PTSUNNY   36  19  51 S13       30.19F

$$

INZ006>009-017-018-025>027-291600-
NORTHEAST INDIANA

CITY           SKY/WX    TMP DP  RH WIND       PRES   REMARKS
ANGOLA *+      SUNNY     36  18  48 S17       30.18F
AUBURN +       MOSUNNY   36  18  48 S9G17     30.21F
FORT WAYNE     PTSUNNY   35  21  56 S18       30.23F WCI  24
HUNTINGTON +   SUNNY     34  14  42 SW12G18   30.22F WCI  26

$$

INZ028-029-035-036-043>045-051>053-291600-
WEST CENTRAL INDIANA

CITY           SKY/WX    TMP DP  RH WIND       PRES   REMARKS
CRAWFORDSVL +  MOSUNNY   36  13  38 S18       30.20F
GREENCASTLE +  SUNNY     36  12  38 S14G20    30.23F
LAFAYETTE      PTSUNNY   38  17  42 S15G23    30.19F
TERRE HAUTE    MOSUNNY   39  20  46 S21G26    30.22F

$$

INZ030>032-037>040-046>048-054>057-064-065-291600-
CENTRAL INDIANA

CITY           SKY/WX    TMP DP  RH WIND       PRES   REMARKS
CP ATTERBURY + SUNNY     37  18  44 S16       30.28F
COLUMBUS       SUNNY     46  14  27 S17         N/A
FISHERS *+     SUNNY     36  21  55 S15G21    30.24
FRANKFORT +    PTSUNNY   37  21  53 SE14G26   30.21F
GREENWOOD *+   SUNNY     36  16  44 S15       30.25F
INDIANAPOLIS   PTSUNNY   39  15  37 S17       30.23F
-EAGLE CREEK   SUNNY     37  16  42 S13G20    30.23F
KOKOMO *+        N/A     36  21  55 S20       30.21F
MARION +       MOSUNNY   35  18  50 S18G29    30.23F WCI  24
MT COMFORT *+  SUNNY     36  10  35 S15       30.25F
SHELBYVILLE    SUNNY     38  20  48 S17       30.27S
ZIONSVILLE +   MOSUNNY   36  17  46 S15       30.23F

$$

INZ033-034-041-042-049-050-058-059-291600-
EAST CENTRAL INDIANA

CITY           SKY/WX    TMP DP  RH WIND       PRES   REMARKS
MUNCIE         SUNNY     37  17  44 S15       30.25S

$$

INZ060-061-067>069-081>083-085>088-291600-
SOUTHWEST INDIANA

CITY           SKY/WX    TMP DP  RH WIND       PRES   REMARKS
EVANSVILLE     SUNNY     43  21  41 S13G21    30.27F
HUNTINGBURG *+ SUNNY     39  21  48 S14G23    30.27F
WASHINGTON +   SUNNY     39  19  44 S18G24    30.25S

$$

INZ062-063-066-070>080-084-089>092-291600-
SOUTH CENTRAL AND SOUTHEAST INDIANA

CITY           SKY/WX    TMP DP  RH WIND       PRES   REMARKS
BEDFORD +      SUNNY     39  14  35 S15       30.27F
BLOOMINGTON    SUNNY     38  19  46 S13       30.22F
NORTH VERNON + SUNNY     37  16  41 S12G18    30.30S
SEYMOUR +      SUNNY     39  21  48 S12       30.29F

$$




USA.gov is the U.S. government's official web portal to all federal, state and local government web resources and services.